Location: Orange Harbor Mobile Home Park
(26.6923°N, 81.7937°W)
Time: 07:53:41
(UTC+00:00)

Fermi - Pass Details

Date: 19 September 2020
Orbit: 523 x 540 km, 25.6° (Epoch: 29 October)

Event Time Altitude Azimuth Distance (km) Brightness Sun altitude
Rises 00:19:04 0° 271° (W) 2,645 9.3 -12.3°
Reaches altitude 10° 00:21:19 10° 269° (W) 1,759 7.8 -12.8°
Maximum altitude 00:25:23 73° 185° (S) 551 3.7 -13.7°
Enters shadow 00:27:42 25° 104° (ESE) 1,101 4.7 -14.2°
